Weather Roundup
Issued by NWS Chicago, IL

Home | Current Version | Previous Version | Text Only | Print | Product List | Glossary Off
Versions: 1 2 3 4 5 6 7 8 9 10 11 12 13 14 15 16 17 18 19 20 21 22 23 24 25 26 27 28 29 30 31 32 33 34 35 36 37 38 39 40 41 42 43 44 45 46 47 48 49 50

000
NZUS59 KLOT 190121
HRRLOT

CHICAGO AREA WEATHER ROUNDUP
NATIONAL WEATHER SERVICE CHICAGO/ROMEOVILLE IL
800 PM CDT SAT APR 18 2015

NOTE: "FAIR" INDICATES FEW OR NO CLOUDS BELOW 12,000 FEET WITH NO
SIGNIFICANT WEATHER AND/OR OBSTRUCTIONS TO VISIBILITY.

* THESE STATIONS ARE NOT UNDER NWS QUALITY CONTROL. THEY ALSO MAY NOT
  REPORT WEATHER SUCH AS PRECIPITATION OR FOG.

ILZ005-006-012>014-019>023-190200-
NORTHEAST ILLINOIS

CITY           SKY/WX    TMP DP  RH WIND       PRES   REMARKS
OHARE          MOCLDY    49  32  52 NE13      30.02R
MIDWAY         MOCLDY    51  33  50 NE13      30.02R
AURORA         PTCLDY    57  33  40 E15       29.99R
LANSING*       CLOUDY    45  35  68 N7        30.02S
JOLIET*        MOCLDY    56  37  47 NE9       29.99R
WAUKEGAN       PTCLDY    46  33  60 N14G23    30.02S
DUPAGE AIRPORT PTCLDY    54  33  45 NE10      30.00R
WHEELING       PTCLDY    48  32  53 NE13      30.03S
KANKAKEE*      CLOUDY    53  40  59 NE8       29.99R
MORRIS*        MOCLDY    58  36  44 NE8       29.96R
LEWIS AIRPORT* MOCLDY    53  34  48 E13       30.00R
NORTHERLY IS     N/A     45  36  70 N13         N/A
$$

WIZ051-052-058>065-066-070>072-190200-
SOUTHEAST WISCONSIN

CITY           SKY/WX    TMP DP  RH WIND       PRES   REMARKS
MILWAUKEE      PTCLDY    43  31  62 N20G29    30.05F
KENOSHA*       CLEAR     45  33  63 NE12      30.04R
RACINE*        CLEAR     42  33  70 N18G28    30.06S
BURLINGTON     CLEAR     48  31  50 NE6       30.03S
WAUKESHA       PTCLDY    50  30  46 NE15      30.04F
WEST BEND      CLEAR     46  27  46 NE7       30.06F
$$

INZ001>003-010>013-019-020-190200-
NORTHWEST INDIANA

CITY           SKY/WX    TMP DP  RH WIND       PRES   REMARKS
GARY*          MOCLDY    45  34  65 N6        30.02F
MICHIGAN CITY* NOT AVBL
RENSSELAER*    NOT AVBL
VALPARAISO     CLOUDY    49  36  61 N6        30.00R
$$

LMZ740>746-190200-
SOUTHERN LAKE MICHIGAN

STATION/POSITION TIME  SKY/WX   TEMP WIND        PRES    VSBY
                                AIR  DIR/SP/G
                 (UTC)          (F)  (DEG/KT/KT) (MB)    (MI)
HARRISON CRIB    0100            42  340/ 15/ 17   N/A
BURNHAM HARBOR   0100            45  360/  9/ 16   N/A
CALUMET HARBOR   0000            43  340/ 12/ 17   N/A
BURNS HARBOR     0000            41  320/  6/  8 1016.9F
MICHIGAN CITY    0100            42  260/  6/  7   N/A
$$

ABBREVIATIONS USED IN REMARKS
   TC - TEMPERATURE IN CELSIUS
  WCI - WIND CHILL INDEX
   HX - HEAT INDEX
  VSB - VISIBILITY
$$


USA.gov is the U.S. government's official web portal to all federal, state and local government web resources and services.